Weather in Novochurtakh

Russia / Republic of Dagestan     43°12′31″N   46°32′11″E
temp.,
°C
wind,
m/s
gust,
m/s
humid.,
%
clouds,
%
prec.,
mm/h
press.,
hPa
HPBL,
m
14 april, wed
wed1400:00+10sw22795 0.0 101713
03:00+9w228767 0.0 101627
06:00+9wsw378751 0.0 1017207
09:00+14w676787 0.0 1017946
12:00+13w6871100 0.1 10171029
15:00+12sw5776100 0.8 1017661
18:00+12wsw3673100 1.6 1017157
21:00+10sw497593 1.6 1017174
15 april, thu
thu1500:00+9wsw3679100 0.0 1017115
03:00+9sw478175 0.0 1017122
06:00+9sw411775 0.0 1017260
09:00+15wnw68550 0.0 1017969
12:00+19wnw68430 0.0 10161529
15:00+20nw67361 0.0 10151871
18:00+16nw2251100 0.0 101620
21:00+14sw335299 0.0 101720
16 april, fri
fri1600:00+13sw335397 0.0 101727
03:00+12sw225782 0.0 101718
06:00+12sw226077 0.0 101817
09:00+17n2247100 0.0 1018632
12:00+20nne3340100 0.0 10171203
15:00+21ene433610 0.0 10171673
18:00+17ene485359 0.0 1016166
21:00+14ese355793 0.0 101768
17 april, sat
sat1700:00+13ssw116283 0.0 101711
03:00+12sw336737 0.0 101824
06:00+12wsw227069 0.0 101924
09:00+16wnw5556100 0.0 1020694
12:00+19nw4446100 0.0 10201482
15:00+17wnw4759100 0.0 1021319
18:00+14wsw3576100 0.2 1022290
21:00+12wsw2386100 0.8 1023157
18 april, sun
sun1800:00+12nne1185100 0.0 102276
03:00+11ne2394100 2.1 1022220
06:00+10ne2296100 4.8 1023195
09:00+13e458498 5.0 1021573
12:00+17ene5565100 0.0 10201147
15:00+18ene655951 0.0 10191171
18:00+14e5871100 0.0 1020350
21:00+11ese2381100 0.0 102178